Weather History for Seretse Khama, Botswana

Change the Weather History Date:

Wednesday, September 4, 2013

  Actual Average Record
Temperature  
Mean Temperature 68 °F -  
Max Temperature 87 °F 82 °F 93 °F (1998)
Min Temperature 48 °F 53 °F 42 °F (1997)
Cooling Degree Days 2    
Growing Degree Days 18 (Base 50)    
Moisture  
Dew Point 25 °F    
Average Humidity 21    
Maximum Humidity 40    
Minimum Humidity 8    
Precipitation  
Precipitation 0.00 in - - ()
Sea Level Pressure  
Sea Level Pressure 30.19 in    
Wind  
Wind Speed 5 mph ()    
Max Wind Speed 14 mph    
Max Gust Speed -    
Averages and records for this station are not official NWS values.
T = Trace of Precipitation, MM = Missing Value Source: Averaged Metar Reports

Daily Weather History Graph

Daily Weather History Graph

Search for Another Location

Airport:

Trip Planner

Search our weather history database for the weather conditions in past years. The results will help you decide how hot, cold, wet, or windy it might be!

Date:

Astronomy

Sep. 04, 2013 Rise Set
Actual Time 6:24 AM CAT 6:06 PM CAT
Civil Twilight 6:01 AM CAT 6:29 PM CAT
Nautical Twilight 5:35 AM CAT 6:55 PM CAT
Astronomical Twilight 5:09 AM CAT 7:21 PM CAT
Moon 5:25 AM CAT (9/4) 5:19 PM CAT (9/4)
Length of Visible Light 12h 27m
Length of Day
11h 41m
Waning Crescent, 1% of the Moon is Illuminated
Sep 4
Waning Crescent
Sep 5
New
Sep 12
First Quarter
Sep 19
Full
Sep 27
Last Quarter

Hourly Weather History & Observations

Time (CAT) Temp. Dew Point Humidity Pressure Visibility Wind Dir Wind Speed Gust Speed Precip Events Conditions
12:00 AM 59.0 °F 23.0 °F 25% 30.18 in - South 4.6 mph - N/A   Clear
1:00 AM 59.0 °F 26.6 °F 29% 30.18 in - SSE 5.8 mph - N/A   Clear
2:00 AM 55.4 °F 24.8 °F 31% 30.18 in - ESE 2.3 mph - N/A   Clear
3:00 AM 55.4 °F 26.6 °F 33% 30.15 in - SSE 6.9 mph - N/A   Clear
4:00 AM 55.4 °F 26.6 °F 33% 30.15 in - South 12.7 mph - N/A   Clear
5:00 AM 53.6 °F 28.4 °F 38% 30.18 in - South 3.5 mph - N/A   Clear
6:00 AM 48.2 °F 24.8 °F 40% 30.21 in - WNW 5.8 mph - N/A   Clear
7:00 AM 50.0 °F 23.0 °F 35% 30.24 in - Variable 2.3 mph - N/A   Clear
8:00 AM 59.0 °F 24.8 °F 27% 30.24 in - Variable 2.3 mph - N/A   Clear
9:00 AM 66.2 °F 26.6 °F 23% 30.27 in - Variable 2.3 mph - N/A   Clear
10:00 AM 71.6 °F 33.8 °F 25% 30.27 in - East 4.6 mph - N/A   Clear
11:00 AM 77.0 °F 35.6 °F 22% 30.27 in - East 3.5 mph - N/A   Clear
12:00 PM 80.6 °F 35.6 °F 20% 30.24 in - NNE 4.6 mph - N/A   Clear
1:00 PM 84.2 °F 35.6 °F 18% 30.18 in - Variable 3.5 mph - N/A   Clear
2:00 PM 86.0 °F 32.0 °F 14% 30.15 in - West 5.8 mph - N/A   Clear
3:00 PM 87.8 °F 30.2 °F 13% 30.12 in - NW 5.8 mph - N/A   Clear
4:00 PM 87.8 °F 24.8 °F 10% 30.12 in - WNW 9.2 mph - N/A   Clear
5:00 PM 87.8 °F 19.4 °F 8% 30.09 in - West 13.8 mph - N/A   Clear
6:00 PM 84.2 °F 19.4 °F 9% 30.12 in - WSW 8.1 mph - N/A   Clear
7:00 PM 78.8 °F 17.6 °F 10% 30.15 in - SSW 8.1 mph - N/A   Clear
8:00 PM 75.2 °F 14.0 °F 10% 30.18 in - SSW 8.1 mph - N/A   Clear
9:00 PM 71.6 °F 14.0 °F 11% 30.21 in - SSW 8.1 mph - N/A   Clear
10:00 PM 66.2 °F 12.2 °F 12% 30.21 in - NNE 3.5 mph - N/A   Clear
11:00 PM 62.6 °F 10.4 °F 13% 30.24 in - Variable 2.3 mph - N/A   Clear